CST,Max TemperatureF,Mean TemperatureF,Min TemperatureF,Max Dew PointF,MeanDew PointF,Min DewpointF,Max Humidity, Mean Humidity, Min Humidity, Max Sea Level PressureIn, Mean Sea Level PressureIn, Min Sea Level PressureIn, Max VisibilityMiles, Mean VisibilityMiles, Min VisibilityMiles, Max Wind SpeedMPH, Mean Wind SpeedMPH, Max Gust SpeedMPH,PrecipitationIn, CloudCover, Events, WindDirDegrees
2014-1-1,56,41,26,31,25,19,78,54,30,30.17,30.04,29.91,10,10,8,18,9,32,T,3,Snow,147
2014-1-2,27,20,12,21,10,6,80,65,50,30.50,30.30,30.06,10,8,2,22,10,31,T,4,Snow,316
2014-1-3,39,24,8,15,10,5,91,62,33,30.50,30.30,30.04,10,10,9,22,11,28,0.00,0,,155
2014-1-4,40,35,30,34,27,15,92,71,49,30.03,29.92,29.86,10,8,3,20,10,31,0.05,6,Rain,152
2014-1-5,34,20,6,34,17,-6,100,78,55,30.48,29.97,29.76,10,3,0,23,12,32,0.35,7,Fog-Rain-Snow,319
2014-1-6,10,4,-2,-6,-10,-15,69,55,41,30.64,30.56,30.48,10,10,10,18,10,28,0.00,0,,301
2014-1-7,43,22,0,18,9,-6,79,54,29,30.53,30.34,30.21,10,10,10,15,7,21,0.00,0,,149
2014-1-8,32,29,26,30,24,12,100,74,47,30.35,30.29,30.25,10,5,1,15,8,18,T,6,Rain,125
2014-1-9,36,33,29,34,31,28,100,96,92,30.31,30.20,30.08,10,4,0,13,8,25,T,8,Fog,135
2014-1-10,53,43,33,48,44,32,100,86,71,30.07,29.82,29.60,10,6,0,24,11,37,0.63,7,Fog-Rain,170
2014-1-11,53,45,36,35,31,27,92,67,41,30.02,29.86,29.67,10,10,10,18,9,26,0.00,1,,276
2014-1-12,64,47,29,30,27,25,85,54,22,30.01,29.84,29.66,10,10,10,24,13,33,0.00,0,,167
2014-1-13,59,50,41,45,32,22,67,49,30,29.94,29.82,29.66,10,10,10,20,9,29,0.00,1,,279
2014-1-14,51,42,32,30,19,11,53,39,24,30.19,30.01,29.85,10,10,10,18,9,26,T,1,,295
2014-1-15,37,30,22,17,10,1,63,43,23,30.27,30.17,29.99,10,10,10,16,8,24,0.00,1,,302
2014-1-16,52,43,33,25,20,15,51,40,28,29.99,29.91,29.83,10,10,10,23,12,43,0.00,3,,279
2014-1-17,36,30,23,17,3,-7,51,34,17,30.19,30.12,30.01,10,10,10,25,12,38,0.00,0,,292
2014-1-18,56,39,21,23,18,9,62,43,24,30.12,29.95,29.80,10,10,10,25,13,37,0.00,1,,264
2014-1-19,59,41,23,22,17,12,74,46,17,30.17,30.06,29.92,10,10,10,17,7,25,0.00,0,,255
2014-1-20,64,52,39,26,23,19,45,34,23,30.09,29.93,29.83,10,10,10,22,9,29,0.00,0,,312
2014-1-21,40,28,16,21,6,-3,65,49,32,30.38,30.25,30.07,10,10,10,24,9,38,T,2,Snow,325
2014-1-22,42,29,15,18,12,4,73,53,33,30.27,30.18,30.09,10,10,10,17,6,25,0.00,1,,317
2014-1-23,29,18,6,11,-4,-11,63,46,28,30.79,30.64,30.28,10,10,10,16,8,22,0.00,3,,340
2014-1-24,38,19,0,5,-3,-14,87,49,11,30.76,30.40,29.97,10,10,10,21,7,30,0.00,0,,226
2014-1-25,56,45,34,31,23,6,82,54,25,30.01,29.95,29.86,10,10,10,22,10,32,0.00,3,,290
2014-1-26,68,49,29,31,28,24,85,53,20,29.93,29.77,29.66,10,10,10,23,10,35,0.00,0,,255
2014-1-27,39,27,15,11,-4,-12,54,41,28,30.45,30.31,29.98,10,10,10,22,11,30,0.00,5,,349
2014-1-28,26,19,11,-1,-5,-9,51,37,23,30.52,30.44,30.38,10,10,10,12,5,15,0.00,3,,346
2014-1-29,40,25,9,14,6,-2,73,48,22,30.39,30.29,30.10,10,10,10,17,6,23,0.00,0,,193
2014-1-30,47,36,25,26,15,7,72,50,27,30.10,29.95,29.83,10,10,10,24,10,37,0.00,0,,178
2014-1-31,44,38,31,41,35,24,96,78,60,29.97,29.90,29.84,10,6,0,17,8,20,0.00,8,Fog,137